�������r�C�����j�^�v���󋵏��
Date,Time,5�C6���@���p�r�C��,����,����(m/s)
2024/05/10,00:00,3.5,���k��,5.9
2024/05/10,00:10,3.5,���k��,6.2
2024/05/10,00:20,3.7,���k��,6.4
2024/05/10,00:30,3.6,���k��,7.1
2024/05/10,00:40,3.6,���k��,6.9
2024/05/10,00:50,3.6,���k��,6.3
2024/05/10,01:00,3.6,���k��,5.3
2024/05/10,01:10,3.6,���k��,4.4
2024/05/10,01:20,3.6,���k��,4.4
2024/05/10,01:30,3.5,���k��,4.9
2024/05/10,01:40,3.9,��,3.5
2024/05/10,01:50,3.6,��,3.6
2024/05/10,02:00,3.6,���쐼,2.3
2024/05/10,02:10,3.7,���쐼,3.3
2024/05/10,02:20,3.5,���쐼,4.9
2024/05/10,02:30,3.7,�쐼,2.6
2024/05/10,02:40,3.8,�쐼,1.7
2024/05/10,02:50,3.6,�쐼,1.1
2024/05/10,03:00,3.6,�쐼,1.5
2024/05/10,03:10,3.7,�쐼,1.5
2024/05/10,03:20,3.6,�쐼,1.1
2024/05/10,03:30,3.5,�쐼,0.9
2024/05/10,03:40,3.7,�쐼,1.2
2024/05/10,03:50,3.5,��쐼,1.7
2024/05/10,04:00,3.5,���쐼,1.2
2024/05/10,04:10,3.7,��,1.7
2024/05/10,04:20,3.6,��쐼,1.7
2024/05/10,04:30,3.6,��쐼,1.7
2024/05/10,04:40,3.4,��쐼,1.1
2024/05/10,04:50,3.6,���쐼,2.0
2024/05/10,05:00,3.7,��,2.6
2024/05/10,05:10,3.6,��,2.0
2024/05/10,05:20,3.6,��,0.6
2024/05/10,05:30,3.5,�k��,0.6
2024/05/10,05:40,3.6,-,CALM
2024/05/10,05:50,3.7,�k,0.6
2024/05/10,06:00,3.8,�k,1.2
2024/05/10,06:10,3.6,�k�k��,2.0
2024/05/10,06:20,3.6,�k�k��,2.0
2024/05/10,06:30,3.7,���k��,2.3
2024/05/10,06:40,3.7,�k��,1.9
2024/05/10,06:50,3.5,�k�k��,1.9
2024/05/10,07:00,3.6,�k�k��,2.3
2024/05/10,07:10,3.6,�k��,2.8
2024/05/10,07:20,3.7,�k�k��,1.2
2024/05/10,07:30,3.5,�k��,2.3
2024/05/10,07:40,3.5,�k��,1.5
2024/05/10,07:50,3.5,�쐼,1.2
2024/05/10,08:00,3.7,��쐼,1.4
2024/05/10,08:10,3.6,��쓌,1.4
2024/05/10,08:20,3.7,��쓌,2.0
2024/05/10,08:30,3.7,�쓌,3.0
2024/05/10,08:40,3.5,�쓌,3.9
2024/05/10,08:50,3.6,��쓌,3.6
2024/05/10,09:00,3.6,�쓌,3.6
2024/05/10,09:10,3.7,��쓌,3.4
2024/05/10,09:20,3.6,��쓌,4.0
2024/05/10,09:30,3.6,��쓌,5.2
2024/05/10,09:40,3.5,��쓌,5.9
2024/05/10,09:50,3.6,��쓌,5.5
2024/05/10,10:00,3.7,��쓌,5.8
2024/05/10,10:10,3.6,��쓌,6.1
2024/05/10,10:20,3.8,��쓌,6.5
2024/05/10,10:30,3.7,��쓌,7.3
2024/05/10,10:40,3.6,��쓌,6.6
2024/05/10,10:50,3.7,��쓌,6.7
2024/05/10,11:00,3.7,��쓌,7.6
2024/05/10,11:10,3.5,��쓌,8.0
2024/05/10,11:20,3.7,��쓌,7.7
2024/05/10,11:30,3.8,��쓌,8.9
2024/05/10,11:40,3.8,��쓌,6.2
2024/05/10,11:50,3.5,��쓌,10.5
2024/05/10,12:00,3.6,��쓌,11.0
2024/05/10,12:10,3.6,��쓌,12.0
2024/05/10,12:20,3.7,��쓌,11.8
2024/05/10,12:30,3.7,��쓌,11.9
2024/05/10,12:40,3.6,��쓌,10.2
2024/05/10,12:50,3.6,��쓌,9.0
2024/05/10,13:00,3.7,��쓌,8.9
2024/05/10,13:10,3.6,��쓌,8.8
2024/05/10,13:20,3.8,��쓌,10.2
2024/05/10,13:30,3.7,��쓌,10.7
2024/05/10,13:40,3.5,��쓌,11.8
2024/05/10,13:50,3.7,��쓌,9.9
2024/05/10,14:00,3.5,��쓌,12.4
2024/05/10,14:10,3.6,��쓌,11.8
2024/05/10,14:20,3.5,��쓌,12.5
2024/05/10,14:30,3.6,��쓌,10.5
2024/05/10,14:40,3.7,��쓌,9.1
2024/05/10,14:50,3.7,��,6.0
2024/05/10,15:00,3.7,��,8.1
2024/05/10,15:10,3.6,��,8.7
2024/05/10,15:20,3.6,��쓌,9.6
2024/05/10,15:30,3.7,��,8.7
2024/05/10,15:40,3.6,��,8.5
2024/05/10,15:50,3.6,��,7.9
2024/05/10,16:00,3.7,��,8.5
2024/05/10,16:10,3.6,��,8.2
2024/05/10,16:20,3.6,��,9.4
2024/05/10,16:30,3.6,��,9.3
2024/05/10,16:40,3.7,��,7.7
2024/05/10,16:50,3.7,��,7.3
2024/05/10,17:00,3.7,��,7.5
2024/05/10,17:10,3.7,��,8.5
2024/05/10,17:20,3.6,��,8.4
2024/05/10,17:30,3.7,��,8.2
2024/05/10,17:40,3.7,��,7.4
2024/05/10,17:50,3.8,��쐼,7.8
2024/05/10,18:00,3.7,��,9.4
2024/05/10,18:10,3.6,��쐼,8.5
2024/05/10,18:20,3.6,��쐼,8.7
2024/05/10,18:30,3.6,��쐼,9.0
2024/05/10,18:40,3.6,��쐼,7.9
2024/05/10,18:50,3.6,��쐼,8.2
2024/05/10,19:00,3.6,��쐼,7.3
2024/05/10,19:10,3.6,��쐼,7.1
2024/05/10,19:20,3.5,��쐼,5.7
2024/05/10,19:30,3.6,��쐼,4.9
2024/05/10,19:40,3.4,��쐼,4.1
2024/05/10,19:50,3.8,��,3.6
2024/05/10,20:00,3.7,��,3.3
2024/05/10,20:10,3.6,��쐼,2.8
2024/05/10,20:20,3.7,��,3.4
2024/05/10,20:30,3.5,��,3.8
2024/05/10,20:40,3.7,��쐼,4.4
2024/05/10,20:50,3.6,��,6.6
2024/05/10,21:00,3.6,��,6.3
2024/05/10,21:10,3.6,��,6.8
2024/05/10,21:20,3.6,��,7.3
2024/05/10,21:30,3.5,��,7.2
2024/05/10,21:40,3.7,��,6.6
2024/05/10,21:50,3.7,��,6.1
2024/05/10,22:00,3.6,��,6.0
2024/05/10,22:10,3.6,��,5.9
2024/05/10,22:20,3.4,��,6.9
2024/05/10,22:30,3.8,��쐼,5.7
2024/05/10,22:40,3.5,��쐼,6.3
2024/05/10,22:50,3.6,��,6.0
2024/05/10,23:00,3.6,��,5.8
2024/05/10,23:10,3.6,��쐼,5.1
2024/05/10,23:20,3.7,��,6.0
2024/05/10,23:30,3.6,��쐼,5.2
2024/05/10,23:40,3.6,��쐼,5.1
2024/05/10,23:50,3.8,��,5.2
